This is the latest recevied weather packets stored in our database for station/object KC7UNY-13. If no packets are shown the sender has not sent any weather packets the latest 10 day(s).
| Time | Temp. | Humidity | Pressure | Rain* | Wind** | Luminosity | Snow |
|---|---|---|---|---|---|---|---|
| 1777415267 | 31.11° C | 18% | 1013.6 hPa | 0 mm | - | 506 W/m² | - |
| 1777414963 | 31.11° C | 17% | 1013.8 hPa | 0 mm | - | 482 W/m² | - |
| 1777414663 | 30.56° C | 18% | 1013.8 hPa | 0 mm | - | 532 W/m² | - |
| 1777414358 | 30° C | 17% | 1013.9 hPa | 0 mm | - | 565 W/m² | - |
| 1777414052 | 30° C | 17% | 1014.1 hPa | 0 mm | - | 456 W/m² | - |
| 1777413747 | 29.44° C | 19% | 1014.2 hPa | 0 mm | - | 553 W/m² | - |
| 1777413443 | 30° C | 17% | 1014.2 hPa | 0 mm | - | 539 W/m² | - |
| 1777413140 | 30.56° C | 17% | 1014.2 hPa | 0 mm | - | 554 W/m² | - |
| 1777412835 | 29.44° C | 18% | 1014.2 hPa | 0 mm | - | 555 W/m² | - |
| 1777412535 | 28.89° C | 18% | 1014.4 hPa | 0 mm | - | 655 W/m² | - |
| 1777412232 | 29.44° C | 19% | 1014.5 hPa | 0 mm | - | 569 W/m² | - |
| 1777411929 | 30.56° C | 18% | 1014.6 hPa | 0 mm | - | 647 W/m² | - |
| 1777411627 | 28.89° C | 19% | 1014.4 hPa | 0 mm | - | 644 W/m² | - |
| 1777411322 | 29.44° C | 18% | 1014.7 hPa | 0 mm | - | 667 W/m² | - |
| 1777411021 | 29.44° C | 19% | 1014.6 hPa | 0 mm | - | 688 W/m² | - |
| 1777410720 | 28.89° C | 19% | 1014.8 hPa | 0 mm | - | 679 W/m² | - |
| 1777410415 | 28.89° C | 19% | 1014.8 hPa | 0 mm | - | 697 W/m² | - |
| 1777410114 | 28.33° C | 20% | 1014.9 hPa | 0 mm | - | 724 W/m² | - |
| 1777409809 | 29.44° C | 20% | 1015 hPa | 0 mm | - | 666 W/m² | - |
| 1777409505 | 28.33° C | 20% | 1015.1 hPa | 0 mm | - | 724 W/m² | - |
| 1777409201 | 28.89° C | 20% | 1015.1 hPa | 0 mm | - | 714 W/m² | - |
| 1777408898 | 28.89° C | 20% | 1015.2 hPa | 0 mm | - | 759 W/m² | - |
| 1777408594 | 28.89° C | 21% | 1015.1 hPa | 0 mm | - | 765 W/m² | - |
| 1777408290 | 28.89° C | 21% | 1015.2 hPa | 0 mm | - | 787 W/m² | - |
| 1777407990 | 28.89° C | 22% | 1015.2 hPa | 0 mm | - | 735 W/m² | - |
* Rain latest hour (hover to see other rain measurements)
** Current wind speed in m/s (hover to see current wind gust speed)